ES'HAIL 2

Last updated on Fri Dec 19 2025 00:02:52 GMT+0000 (Coordinated Universal Time)

1 43700U 18090A 25352.55906797 .00000169 00000+0 00000+0 0 9991 2 43700 0.0175 17.3730 0000953 268.7413 28.3685 1.00271444 25864
UTC large
Height (km)
Speed (km/s)
/
Latitude / Longitude
Inclination (degrees)
Orbital Period (minutes)
Azimuth
Elevation
Range (km)
Doppler Factor

Next 0 passes for location: London (51.5072 / 0.1276)

Sorry there are no passes over London.